Home   Weather   Gambier Islands   Past weeks

Flag for French Polynesia Past Weather in Gambier Islands, French Polynesia — Yesterday and Last 2 Weeks

Now
74 °F

Mild.


Feels Like: 75 °F
Forecast: 73 / 80 °F
Wind: 5 mph from East

Location: Rikitea

Current Time: Apr 29, 2017 at 6:37:43 am

Latest Report: Apr 29, 2017 at 5:00 am


Visibility: N/A

Pressure: 29.99 "Hg

Humidity: 73%

Dew Point: 64 °F

Location of Gambier IslandsLocation

Past Weather in Gambier Islands — Graph

°F

Gambier Islands Temperature Yesterday

Maximum temperature yesterday: 77 °F (at 12:00 pm)
Minimum temperature yesterday: 72 °F (at 3:00 am)
Average temperature yesterday: 74 °F

High & Low Weather Summary for the Past Weeks

 TemperatureHumidityPressure
High83 °F (Apr 14, 1:00 pm)96% (Apr 15, 12:00 pm)30.14 "Hg (Apr 15, 12:00 pm)
Low68 °F (Apr 16, 3:00 am)55% (Apr 18, 12:00 pm)29.69 "Hg (Apr 14, 4:00 pm)
Average75 °F76%29.99 "Hg
* Reported Apr 14 5:00 am — Apr 29 5:00 am, Gambier Islands, Weather by CustomWeather, © 2017

Note: Actual official high and low records may vary slightly from our data, if they occured in-between our weather recording intervals... More about our weather records

Advertising

Gambier Islands Weather History for the Previous 24 Hours

Scroll right to see more
 ConditionsComfort  
Time TempWeatherWind HumidityBarometerVisibility
5:00 am
Sat, Apr 29
74 °FMild.5 mph73%29.99 "HgN/A
4:00 am74 °FMild.3 mph74%29.98 "HgN/A
3:00 am74 °FMild.5 mph73%29.98 "HgN/A
2:00 am74 °FMild.3 mph73%29.99 "HgN/A
1:00 am73 °FMild.9 mph76%30.01 "HgN/A
12:00 am74 °FMild.14 mph74%30.02 "HgN/A
11:00 pm
Fri, Apr 28
74 °FMild.12 mph71%30.03 "HgN/A
10:00 pm74 °FMild.13 mph69%30.03 "HgN/A
9:00 pm74 °FMild.13 mph70%30.04 "HgN/A
8:00 pm74 °FMild.14 mph72%30.03 "HgN/A
7:00 pm74 °FMild.14 mph73%30.02 "HgN/A
6:00 pm74 °FMild.12 mph74%30.00 "HgN/A
5:00 pm74 °FPassing clouds.8 mph71%29.99 "Hg25 mi
4:00 pm75 °FPassing clouds.9 mph69%29.98 "Hg25 mi
3:00 pm76 °FScattered clouds.8 mph66%29.97 "Hg25 mi
2:00 pm77 °FPassing clouds.9 mph66%29.98 "Hg25 mi
1:00 pm76 °FMild.8 mph63%30.01 "HgN/A
12:00 pm77 °FPassing clouds.10 mph62%30.02 "Hg25 mi
11:00 am77 °FPassing clouds.9 mph64%30.05 "Hg19 mi
9:00 am76 °FPassing clouds.10 mph65%30.06 "Hg19 mi
8:00 am74 °FScattered clouds.10 mph70%30.06 "Hg19 mi
7:00 am73 °FScattered clouds.10 mph73%30.05 "Hg19 mi
6:00 am72 °FPassing clouds.9 mph70%30.03 "Hg19 mi
Weather by CustomWeather, © 2017

See weather overviewHow to use our weather pages